Погода в Банфоре

Буркина-Фасо     10°38′49″N   4°45′13″W
темп.,
°C
ветер,
м/с
пор.,
м/с
влажн.,
%
обл.,
%
осадки,
мм/ч
давл.,
гПа
погр.,
м
12 июня, сб
сб1200:00+25зсз227173 0.3 101235
03:00+24зюз118418 1.6 101224
06:00+24с118565 1.6 101215
09:00+27вюв567038 0.0 1015791
12:00+31юз2248100 0.0 1011694
15:00+34вюв233846 0.0 10091413
18:00+32вюв234467 0.0 101080
21:00+28вюв225746 0.0 101233
13 июня, вс
вс1300:00+28ссв0156100 0.0 101111
03:00+28ююв285570 0.0 1011284
06:00+27ююв255495 0.0 1012162
09:00+30ю2453100 0.0 1014615
12:00+34ююв3438100 0.0 10121306
15:00+37юв2433100 0.0 10092038
18:00+34юв244163 0.0 100985
21:00+30вюв115025 0.0 101011
14 июня, пн
пн1400:00+27ююз4106945 0.3 1012461
03:00+25юз28783 0.0 1012544
06:00+25юз3108157 0.0 1013565
09:00+29юз356319 0.0 1015966
12:00+33ююз444612 0.0 10121367
15:00+35ююз3238100 0.0 10091811
18:00+34ююв23445 0.0 1009130
21:00+29ююв51160100 0.6 1011552
15 июня, вт
вт1500:00+24зсз2383100 3.1 101289
03:00+24юз2682100 0.3 1011203
06:00+23юз3108719 0.4 1012510
09:00+28юз467082 0.0 1013825
12:00+33юз3447100 0.0 10121486
15:00+35ююз2238100 0.0 10092291
18:00+33ю4746100 0.0 1008318
21:00+25ссв41079100 3.7 1013303
16 июня, ср
ср1600:00+23з2384100 9.1 1013102
03:00+24зсз1387100 0.1 101292
06:00+22ююз2292100 4.4 101491
09:00+24зюз4778100 0.1 1015628
12:00+29зюз3458100 0.1 1014983
15:00+31ююз335099 0.0 10111391
18:00+29ююз356081 0.0 1011292
21:00+25юз227352 0.2 101458